Theta_e
297 293 290 292 292 294 294 292 291 294 297 308 307 309 310 311 310 309 309 309 309 310 313 313 314 315 316 317 317 319 320 321 327 331 332 336 334 333 334 335 336 339 341 341
295 291 296 297 296 296 295 292 291 294 298 306 305 307 309 309 308 308 309 308 307 308 308 310 310 311 312 313 314 316 318 320 321 324 331 334 334 332 333 334 335 335 336 339
292 295 300 298 295 295 292 292 291 292 297 306 302 300 305 308 308 309 308 308 308 306 306 307 307 308 310 311 312 314 315 318 319 320 323 324 325 326 326 326 327 330 330 332
293 297 298 297 295 294 289 295 295 294 291 287 291 284 301 304 304 305 305 305 305 306 307 307 307 307 308 310 312 312 313 314 317 318 318 318 318 319 321 324 325 326 328 329
294 294 296 295 296 297 293 296 294 293 288 286 287 284 284 303 301 302 304 305 306 306 307 306 307 307 309 310 311 311 310 310 311 313 316 316 314 316 317 317 317 319 322 323
296 300 298 296 298 298 298 294 291 287 286 282 285 286 286 300 302 303 305 306 307 307 308 308 309 309 310 310 308 308 306 306 308 310 310 310 309 309 309 310 311 312 315 317
296 296 299 300 295 296 294 289 283 283 281 282 287 287 288 299 305 307 306 307 308 308 308 308 308 308 308 308 308 306 304 303 305 307 308 308 308 308 308 308 309 309 310 312
290 289 296 300 295 292 289 289 284 280 280 282 289 286 292 305 308 309 308 308 308 308 308 307 309 309 308 308 307 304 303 304 305 306 307 308 308 308 308 308 309 309 310 312
290 291 298 300 299 297 291 287 289 285 283 282 285 294 301 306 306 307 307 307 307 309 310 309 309 308 307 308 307 304 304 304 306 307 307 308 308 308 309 309 310 310 311 313
294 289 296 299 298 297 293 294 287 284 280 279 282 287 290 300 303 305 305 306 306 307 308 307 306 307 307 306 305 304 305 305 306 307 307 308 309 309 309 309 309 309 310 311
293 291 292 294 292 292 291 289 288 286 284 281 279 284 294 300 305 305 306 307 306 306 306 306 306 307 306 305 303 304 304 304 305 306 307 308 308 309 309 309 309 309 309 310
295 289 287 289 296 298 294 290 289 285 283 284 283 285 296 300 304 306 306 308 308 307 306 306 307 307 305 305 304 303 303 303 305 305 306 307 308 308 307 307 308 309 309 309
295 288 283 286 292 295 293 294 291 287 286 283 281 285 297 300 301 305 305 306 308 308 307 307 307 307 307 306 305 304 304 303 304 305 306 307 306 306 306 306 307 307 308 309
301 289 287 284 286 291 290 294 293 290 284 285 285 288 294 295 294 296 299 302 303 303 307 306 306 306 307 306 305 306 306 306 305 305 306 307 307 306 306 307 307 307 309 309
293 289 289 289 293 294 293 293 293 290 290 287 290 289 292 294 295 300 303 306 306 307 306 306 306 306 307 307 307 307 308 308 307 307 308 307 308 308 308 307 308 308 309 310
293 288 291 289 294 294 292 294 294 293 292 290 291 289 295 301 302 303 304 305 305 306 308 308 308 308 308 309 308 311 311 313 312 308 308 310 310 309 309 308 308 308 308 307
292 290 287 285 292 291 288 291 293 293 293 291 286 289 300 300 301 302 303 305 306 308 308 309 309 309 308 309 311 311 313 313 311 311 310 310 309 308 307 307 307 306 306 306
290 289 287 284 287 281 291 296 297 294 296 295 296 298 300 300 301 303 304 304 306 308 309 309 308 308 307 309 310 311 311 308 308 307 307 307 306 305 305 306 306 307 306 305
294 290 285 283 283 288 292 296 295 292 292 298 297 299 301 302 301 300 305 305 305 306 305 305 306 304 304 305 306 306 305 306 307 306 305 305 304 304 304 304 303 304 303 303
294 292 290 283 282 281 290 297 299 297 287 299 299 298 299 298 291 293 304 305 304 305 304 303 303 302 302 303 304 304 303 303 302 303 304 304 303 302 302 301 300 301 302 301
288 287 285 281 281 286 295 301 300 287 288 298 298 297 296 295 296 298 304 304 303 302 303 304 303 302 303 305 304 302 302 301 303 304 303 302 300 300 301 300 299 299 299 300
288 285 284 283 280 283 298 299 292 295 296 299 298 298 296 297 300 303 303 302 303 303 304 304 303 300 301 301 299 299 299 302 303 302 301 299 298 299 299 298 299 299 298 298
287 290 288 288 288 294 298 296 299 299 297 297 297 297 299 301 301 302 301 301 302 301 301 302 299 298 298 300 302 299 301 302 300 299 298 297 297 297 297 297 298 298 298 297
292 295 291 291 293 296 298 299 301 300 299 299 300 301 302 301 301 301 300 299 299 300 298 298 297 297 297 299 299 299 301 301 299 297 296 296 295 296 296 297 297 298 298 299
292 292 291 290 293 295 298 299 298 298 300 300 301 302 302 301 301 300 299 299 299 297 298 297 298 298 298 299 300 300 300 300 297 296 296 295 295 295 296 298 298 300 301 298
293 291 289 288 295 295 296 298 299 299 300 301 301 301 302 302 300 299 297 298 296 296 298 299 299 299 300 300 299 298 299 301 297 295 295 294 294 295 298 297 297 296 294 294
Wind_Speed
4 6 4 6 3 4 4 4 3 3 3 10 7 9 7 5 7 6 6 6 5 5 4 5 6 6 6 7 9 11 11 11 7 5 3 3 4 4 4 5 6 7 6 8
7 2 4 4 4 5 4 3 2 2 7 9 5 9 6 6 3 3 4 4 5 4 6 6 5 6 8 13 11 10 10 10 9 5 3 2 2 3 3 4 6 8 9 9
5 2 5 7 4 7 3 5 1 3 5 10 7 4 0 3 2 3 3 2 3 4 7 10 13 13 10 10 9 8 8 8 8 7 5 4 4 3 5 6 6 7 10 10
3 3 4 6 3 4 3 2 2 3 4 4 3 4 4 4 2 1 3 3 5 6 7 6 7 7 7 6 6 6 8 9 9 9 7 9 6 5 4 4 5 7 10 11
2 2 4 3 4 4 4 3 3 3 5 3 2 4 4 3 6 6 7 6 5 6 5 6 4 4 3 5 5 5 7 9 8 9 8 6 7 4 4 6 8 9 9 10
1 3 3 3 4 3 6 6 8 6 4 3 4 4 5 7 6 5 5 7 8 8 7 6 6 5 4 2 4 6 7 7 7 6 7 8 7 6 5 5 6 5 4 6
7 4 5 3 4 4 6 7 4 5 5 5 0 2 8 6 6 13 15 10 10 8 7 7 7 6 4 2 3 4 5 6 6 7 7 6 7 6 6 5 3 5 5 4
5 4 3 3 2 6 3 6 7 4 3 4 4 5 3 3 2 1 5 9 8 8 8 8 8 6 4 3 3 4 5 5 5 5 5 5 6 3 3 3 3 3 3 3
5 2 3 4 2 3 3 2 3 7 3 2 3 5 4 2 3 3 6 7 10 11 11 10 5 5 5 4 3 5 5 4 3 3 3 3 4 5 4 4 3 2 4 4
6 4 2 2 2 6 3 5 4 4 2 4 4 4 6 4 7 6 8 10 10 7 7 6 6 6 4 4 3 3 3 3 2 2 2 1 2 3 3 4 5 5 4 5
4 5 4 1 2 4 3 2 6 5 5 6 1 6 6 10 13 13 11 12 9 9 8 6 6 6 6 5 5 4 3 4 4 3 2 1 1 1 2 2 2 3 4 5
1 6 3 1 4 2 0 3 5 6 5 1 4 8 3 7 8 9 11 10 8 5 7 8 9 8 8 7 6 6 5 5 5 4 3 3 4 2 3 4 4 3 4 4
6 3 4 7 7 3 4 2 5 5 3 6 7 7 2 3 1 7 9 9 8 6 8 8 8 10 9 7 6 5 5 6 5 4 4 4 5 4 5 5 5 4 4 4
8 3 7 8 6 4 4 3 3 6 3 3 6 5 8 3 6 7 7 5 5 5 6 6 6 6 6 6 6 6 5 5 5 5 5 6 5 5 6 6 5 4 4 4
5 4 2 1 3 3 4 5 6 7 6 7 6 8 6 5 5 2 2 5 6 5 3 4 4 5 5 6 5 4 5 4 4 6 5 7 5 6 6 4 3 4 3 2
3 3 2 3 5 5 5 7 7 7 6 7 7 7 4 1 1 4 5 6 7 7 7 6 1 3 6 6 5 4 4 3 4 5 6 6 4 3 4 4 3 2 3 4
5 7 4 5 1 1 6 8 6 4 3 4 7 8 6 4 5 3 4 5 5 4 3 3 4 3 4 3 3 3 2 4 3 3 5 6 5 6 8 4 4 3 3 3
7 6 3 3 3 4 7 3 5 5 2 3 2 5 6 6 3 2 1 3 5 3 1 3 3 4 5 2 2 0 0 3 4 7 6 7 7 6 5 4 5 4 3 3
2 6 3 6 5 5 4 4 6 6 5 4 6 6 5 5 2 2 3 2 1 1 2 1 3 4 4 5 5 6 5 4 5 5 4 6 4 6 4 5 6 5 3 3
6 5 5 4 5 7 7 2 4 5 4 8 6 7 7 4 2 5 3 3 3 4 4 5 5 4 6 5 5 6 5 6 6 4 4 5 5 6 6 6 6 4 4 5
4 2 6 3 4 8 7 5 5 5 9 7 8 6 7 5 5 2 4 4 4 3 5 5 6 4 2 3 4 5 5 4 2 3 4 4 4 4 4 5 3 4 4 3
8 8 5 3 3 8 6 5 8 7 2 6 5 6 6 4 2 2 3 5 5 5 5 4 4 5 4 5 5 4 3 2 2 3 4 5 5 5 5 5 5 3 3 4
2 7 8 10 9 4 3 2 3 5 7 6 7 5 7 6 5 5 4 5 4 4 3 3 5 4 3 3 3 3 2 3 4 4 4 5 5 5 5 4 5 3 4 3
2 3 4 4 3 4 3 1 5 5 7 6 5 6 6 6 6 5 5 4 3 3 4 3 4 3 3 4 4 2 1 3 4 4 4 4 5 7 5 4 3 3 2 4
5 5 5 1 2 2 1 4 6 6 6 7 5 5 6 7 5 5 5 4 4 4 3 3 2 2 3 3 4 4 3 2 3 3 4 4 4 5 5 4 3 3 3 2
5 8 6 7 8 5 5 7 6 7 7 8 8 5 4 5 7 5 5 4 4 4 3 3 3 3 4 4 4 5 5 3 2 3 3 4 4 4 4 5 5 6 6 2
Wind_Direction
6 67 177 208 132 162 147 112 101 8 338 73 51 87 54 56 60 41 39 21 24 27 345 28 30 27 24 37 40 27 32 11 19 40 34 43 59 60 37 21 360 344 357 338
17 243 169 129 141 105 92 118 14 129 20 85 69 78 54 33 29 12 10 11 17 357 2 6 21 41 37 32 26 16 26 25 19 26 10 36 59 71 50 13 17 11 360 351
161 229 122 110 110 93 39 122 88 99 78 48 111 18 340 30 57 32 26 324 310 344 356 1 10 15 16 22 12 18 28 35 34 20 25 28 40 28 22 14 13 8 10 2
192 282 134 112 101 112 116 192 134 116 88 192 159 259 272 210 254 270 276 292 308 330 352 354 351 353 356 1 0 22 28 26 26 23 46 50 49 42 4 355 0 3 8 8
283 79 104 99 150 153 192 111 62 38 73 73 323 88 271 136 237 222 239 245 248 248 243 256 266 275 304 340 4 23 39 39 30 35 35 48 52 29 13 17 16 6 6 7
50 318 67 135 68 47 139 79 45 51 69 30 283 119 266 198 211 169 218 225 226 226 226 237 252 260 260 344 33 33 39 29 26 46 53 57 52 37 39 23 21 358 346 355
4 352 322 117 78 43 73 60 355 357 11 222 45 53 245 238 224 174 193 201 214 216 215 218 221 215 201 133 51 59 61 48 31 42 44 58 57 46 39 21 16 10 358 355
132 331 6 2 120 165 74 140 150 214 205 260 324 250 253 239 181 90 116 184 193 206 213 219 216 205 198 168 128 101 88 81 59 51 43 37 57 53 39 19 3 4 360 335
138 232 325 57 94 105 175 73 157 104 32 68 251 297 317 88 105 136 173 189 210 207 206 213 200 199 203 205 182 151 134 124 107 95 62 35 28 35 21 16 20 350 343 346
199 108 22 314 132 42 120 147 70 11 215 250 298 270 241 229 217 206 215 224 231 226 226 210 200 207 218 224 231 187 147 158 168 134 102 60 26 13 2 7 8 2 356 355
128 106 267 23 34 170 41 39 55 118 138 174 229 264 221 207 201 207 216 227 223 218 213 193 198 205 207 217 214 208 207 217 223 210 207 272 333 333 326 329 329 342 333 355
67 127 136 174 304 254 92 156 137 130 225 160 143 270 256 240 210 193 223 230 236 203 200 182 189 192 202 203 202 212 225 231 231 226 221 246 268 273 299 299 302 315 331 333
184 24 66 352 352 4 115 97 109 106 85 193 144 255 4 55 184 231 234 225 235 203 182 183 187 195 202 201 205 215 229 242 253 260 261 274 273 275 267 270 279 294 312 321
82 110 158 189 200 157 173 182 136 125 124 200 225 274 298 295 292 286 257 261 281 247 200 197 195 198 200 207 206 216 234 233 249 257 261 270 269 268 264 263 260 281 299 310
97 164 165 198 184 183 204 214 190 187 199 186 232 204 260 293 295 326 115 90 72 63 146 200 203 211 217 221 222 226 244 249 250 262 266 267 278 270 270 272 286 296 303 304
16 175 134 221 227 214 248 257 256 228 230 239 227 257 182 331 48 70 72 79 62 49 41 34 17 235 231 223 207 216 249 307 309 278 276 287 320 17 40 34 74 57 344 329
122 136 116 238 294 301 295 231 214 228 186 211 193 220 157 129 121 112 90 90 95 77 52 29 5 347 334 286 194 163 3 322 336 30 35 28 22 7 28 1 23 2 322 313
137 115 108 169 58 244 241 293 225 166 214 228 136 137 146 146 131 119 163 163 174 179 168 34 25 24 25 36 73 225 5 106 81 65 49 47 13 14 3 303 331 326 301 298
149 132 120 148 199 292 288 196 159 172 231 178 154 146 142 131 97 320 201 155 92 75 76 67 65 70 67 61 72 82 75 67 69 52 49 43 3 315 311 333 337 327 311 318
98 59 128 148 167 220 241 210 159 119 287 190 170 173 157 132 95 258 192 129 99 70 65 78 70 74 63 38 62 74 65 65 45 61 49 40 6 330 339 330 325 314 322 312
121 56 173 144 204 285 239 180 134 130 235 167 167 168 148 176 197 233 129 90 87 100 92 76 65 72 33 17 78 80 73 70 32 26 37 41 11 336 342 328 337 339 342 4
162 151 181 104 90 270 173 109 171 205 41 136 154 166 168 189 135 127 125 121 107 90 53 57 71 56 39 72 87 95 78 340 49 48 45 21 5 3 356 353 353 359 359 348
194 179 178 172 207 234 231 188 163 153 144 173 152 164 155 150 177 161 149 125 106 87 91 81 119 96 52 53 55 67 51 61 45 44 26 8 359 355 348 340 339 323 337 333
222 149 149 99 220 226 200 100 155 172 149 146 140 144 155 149 154 136 130 125 110 86 91 89 85 56 7 5 8 344 337 67 43 25 12 360 355 344 347 339 321 298 305 356
197 128 139 289 288 88 187 191 159 116 111 111 122 149 167 143 147 140 136 135 126 125 130 134 103 47 17 357 2 11 340 18 31 30 6 0 352 348 335 334 324 341 346 317
185 172 157 214 202 164 197 168 148 135 156 161 146 130 107 134 141 129 138 150 138 126 119 109 79 62 42 50 35 8 353 349 28 24 5 349 339 337 343 349 345 352 5 347